Regional Weather Roundup
Issued by NWS

Home | Current Version | Previous Version | Graphics & Text | Print | Product List | Glossary On
Versions: 1 2 3 4 5 6 7 8 9 10 11 12 13 14 15 16 17 18 19 20 21 22 23 24 25 26 27 28 29 30 31 32 33 34 35 36 37 38 39 40 41 42 43 44 45 46 47 48 49 50
000
ASUS43 KOAX 280110
RWRNE

WEATHER ROUNDUP FOR NEBRASKA
NATIONAL WEATHER SERVICE OMAHA NE
800 PM CDT SUN JUL 27 2014

NOTES: SATELLITE DATA IS BEING USED TO AUGMENT CLOUD COVER ABOVE
       12000 FEET.
       "FAIR" INDICATES FEW OR NO CLOUDS BELOW 12,000 FEET WITH NO
       SIGNIFICANT WEATHER AND/OR OBSTRUCTIONS TO VISIBILITY.

  * THESE STATIONS DO NOT REPORT WEATHER SUCH AS RAIN...SNOW OR FOG.

NEZ001>004-019>022-054>056-280200-
NEBRASKA PANHANDLE

CITY           SKY/WX    TMP DP  RH WIND       PRES   REMARKS
SCOTTSBLUFF    SUNNY     84  54  35 MISG      30.26S
ALLIANCE       SUNNY     82  45  27 E12       30.27R
CHADRON        SUNNY     81  49  32 NE15      30.24R
KIMBALL        MOSUNNY   78  46  32 SE10      30.30S
SIDNEY         SUNNY     84  42  22 SE9       30.30S
$$

NEZ057>060-069>072-079>082-280200-
SOUTHWEST NEBRASKA

CITY           SKY/WX    TMP DP  RH WIND       PRES   REMARKS
NORTH PLATTE   SUNNY     81  47  30 N8        30.21S
IMPERIAL       LGT RAIN  85  48  27 NE5       30.25S
LEXINGTON      CLEAR     79  54  41 N8        30.20R
MCCOOK         CLOUDY    84  52  33 E9        30.21R
OGALLALA       SUNNY     82  49  32 SE8       30.25R
$$

NEZ005>010-023>029-035>040-094-280200-
NORTH CENTRAL NEBRASKA

CITY           SKY/WX    TMP DP  RH WIND       PRES   REMARKS
VALENTINE      SUNNY     79  51  37 N13       30.23R
AINSWORTH      SUNNY     76  52  44 N10       30.23R
BROKEN BOW     CLEAR     79  52  38 N10       30.20S
O`NEILL        CLEAR     75  52  43 N12       30.19S
ORD            CLEAR     78  55  44 N8        30.17R
THEDFORD       SUNNY     80  49  33 NE9       30.25R
$$

NEZ041-046>049-061>064-073>077-083>087-280200-
SOUTH CENTRAL NEBRASKA

CITY           SKY/WX    TMP DP  RH WIND       PRES   REMARKS
GRAND ISLAND   CLEAR     79  58  48 N8        30.17S
AURORA         CLEAR     78  61  55 NE6       30.16R
HASTINGS       CLEAR     80  55  42 N5        30.17S
HEBRON         CLEAR     80  56  43 NE6       30.15R
HOLDREGE       CLEAR     79  58  48 CALM      30.19S
KEARNEY *      CLEAR     81  50  34 N9        30.19R
YORK           CLEAR     77  63  61 N7        30.15S
$$

NEZ011>018-030>034-042>045-280200-
NORTHEAST NEBRASKA

CITY           SKY/WX    TMP DP  RH WIND       PRES   REMARKS
NORFOLK        CLEAR     75  57  53 N16       30.15S
ALBION         CLEAR     76  56  50 N6        30.17S
BLAIR          CLEAR     74  55  51 NW10G18   30.13R
COLUMBUS *     CLEAR     55  55 100 N7        30.15S
FREMONT        CLEAR     76  56  49 N8        30.14S
WAYNE          CLEAR     73  59  62 N10G16    30.16R
$$

NEZ050>053-065>068-078-088>093-280200-
SOUTHEAST NEBRASKA

CITY           SKY/WX    TMP DP  RH WIND       PRES   REMARKS
LINCOLN        CLEAR     79  55  43 N15       30.14R
OMAHA EPPLEY   PTCLDY    77  56  48 N14       30.11R
BEATRICE       CLEAR     78  60  54 N9        30.13R
NEBRASKA CITY  CLEAR     75  55  49 N9        30.12R
PLATTSMOUTH    CLEAR     75  54  47 N10       30.12S
$$

NEZ044-045-051>053-067-280200-
OMAHA AREA

CITY           SKY/WX    TMP DP  RH WIND       PRES   REMARKS
OMAHA EPPLEY   PTCLDY    77  56  48 N14       30.11R
BLAIR          CLEAR     74  55  51 NW10G18   30.13R
FREMONT        CLEAR     76  56  49 N8        30.14S
MILLARD        CLEAR     77  57  50 N5        30.12R
OFFUTT AFB     CLEAR     76  57  52 N8        30.11R
PLATTSMOUTH    CLEAR     75  54  47 N10       30.12S
WAHOO          FAIR      75  58  57 N6        30.13S
$$



USA.gov is the U.S. government's official web portal to all federal, state and local government web resources and services.